Change the Weather History Date:

Sunday, December 16, 2012

  Actual Average (KABR) Record (KABR)
Temperature  
Mean Temperature 20 °F 15 °F  
Max Temperature 23 °F 25 °F 62 °F (1962)
Min Temperature 17 °F 5 °F -28 °F (1951)
Degree Days  
Heating Degree Days 45 50  
Month to date heating degree days 757  
Since 1 July heating degree days 2720  
Cooling Degree Days 0 0  
Month to date cooling degree days 0  
Year to date cooling degree days 525  
Moisture  
Dew Point 20 °F    
Average Humidity 100    
Maximum Humidity 100    
Minimum Humidity 100    
Precipitation  
Precipitation 0.00 in 0.02 in 0.58 in (1904)
Month to date precipitation 0.27  
Year to date precipitation 21.47  
Snow  
Snow 0.00 in - - ()
Month to date snowfall  
Since 1 July snowfall  
Snow Depth -    
Sea Level Pressure  
Sea Level Pressure 29.80 in    
Wind  
Wind Speed 12 mph (North)    
Max Wind Speed 18 mph    
Max Gust Speed 23 mph    
Visibility 9 miles    
Events Rain , Snow    
T = Trace of Precipitation, MM = Missing Value Source: NWS Daily Summary

Daily Weather History Graph

Daily Weather History Graph

Search for Another Location

Airport or City:

Trip Planner

Search our weather history database for the weather conditions in past years. The results will help you decide how hot, cold, wet, or windy it might be!

Date:

Astronomy

Dec. 16, 2012 Rise Set
Actual Time 8:09 AM CST 4:47 PM CST
Civil Twilight 7:34 AM CST 5:22 PM CST
Nautical Twilight 6:56 AM CST 6:00 PM CST
Astronomical Twilight 6:19 AM CST 6:36 PM CST
Moon 10:33 AM CST (12/16) 9:14 PM CST (12/16)
Length of Visible Light 9h 47m
Length of Day
8h 38m
Waxing Crescent, 16% of the Moon is Illuminated
Dec 16
Waxing Crescent
Dec 19
First Quarter
Dec 28
Full
Jan 4
Last Quarter
Jan 11
New

Hourly Weather History & Observations

Time (CST) Temp. Windchill Dew Point Humidity Pressure Visibility Wind Dir Wind Speed Gust Speed Precip Events Conditions
12:15 AM 23.0 °F 8.7 °F 23.0 °F 100% 29.75 in 9.0 mi NW 18.4 mph - N/A   Unknown
12:55 AM 23.0 °F 9.6 °F 23.0 °F 100% 29.74 in 10.0 mi NNW 16.1 mph - N/A   Overcast
1:15 AM 23.0 °F 9.2 °F 23.0 °F 100% 29.74 in 9.0 mi NNW 17.3 mph - N/A Rain Light Freezing Rain
1:35 AM 23.0 °F 8.7 °F 23.0 °F 100% 29.74 in 10.0 mi NNW 18.4 mph - N/A   Unknown
1:55 AM 23.0 °F 8.7 °F 23.0 °F 100% 29.74 in 10.0 mi NNW 18.4 mph 23.0 mph N/A   Unknown
2:15 AM 21.2 °F 6.4 °F 21.2 °F 100% 29.74 in 10.0 mi NNW 18.4 mph - N/A   Unknown
2:55 AM 21.2 °F 7.8 °F 21.2 °F 100% 29.77 in 8.0 mi NNW 15.0 mph - N/A Rain Light Freezing Rain
3:15 AM 21.2 °F 7.3 °F 21.2 °F 100% 29.77 in 10.0 mi North 16.1 mph 20.7 mph N/A   Unknown
3:35 AM 21.2 °F 7.3 °F 21.2 °F 100% 29.78 in 10.0 mi NNW 16.1 mph - N/A   Overcast
3:55 AM 21.2 °F 6.4 °F 21.2 °F 100% 29.78 in 10.0 mi NNW 18.4 mph - N/A   Overcast
4:15 AM 19.4 °F 6.0 °F 19.4 °F 100% 29.78 in 10.0 mi NW 13.8 mph - N/A   Unknown
4:35 AM 19.4 °F 8.6 °F 19.4 °F 100% 29.79 in 5.0 mi NW 9.2 mph - N/A   Mist
4:55 AM 19.4 °F 9.5 °F 19.4 °F 100% 29.80 in 5.0 mi NW 8.1 mph - N/A   Mist
5:15 AM 19.4 °F 6.0 °F 19.4 °F 100% 29.79 in 3.0 mi NNW 13.8 mph - N/A   Mist
5:35 AM 19.4 °F 4.5 °F 19.4 °F 100% 29.78 in 6.0 mi North 17.3 mph - N/A   Mist
5:55 AM 19.4 °F 6.6 °F 19.4 °F 100% 29.79 in 5.0 mi North 12.7 mph - N/A   Mist
6:15 AM 19.4 °F 5.0 °F 19.4 °F 100% 29.79 in 4.0 mi North 16.1 mph - N/A Snow Light Snow
6:35 AM 19.4 °F 6.0 °F 19.4 °F 100% 29.80 in 8.0 mi North 13.8 mph - N/A   Overcast
6:55 AM 19.4 °F 7.2 °F 19.4 °F 100% 29.80 in 8.0 mi North 11.5 mph - N/A   Overcast
7:15 AM 19.4 °F 8.6 °F 19.4 °F 100% 29.80 in 7.0 mi North 9.2 mph - N/A Snow Light Snow
7:35 AM 19.4 °F 6.0 °F 19.4 °F 100% 29.80 in 8.0 mi North 13.8 mph - N/A   Unknown
7:55 AM 19.4 °F 7.2 °F 19.4 °F 100% 29.80 in 8.0 mi North 11.5 mph - N/A   Unknown
8:15 AM 19.4 °F 8.6 °F 19.4 °F 100% 29.81 in 7.0 mi North 9.2 mph - N/A   Unknown
8:35 AM 19.4 °F 7.9 °F 19.4 °F 100% 29.82 in 7.0 mi NNE 10.4 mph - N/A   Unknown
8:55 AM 17.6 °F - 17.6 °F 100% 29.83 in 7.0 mi Calm Calm - N/A   Unknown
9:15 AM 19.4 °F 12.8 °F 19.4 °F 100% 29.83 in 5.0 mi NNW 4.6 mph - N/A   Mist
9:35 AM 19.4 °F 14.3 °F 19.4 °F 100% 29.83 in 6.0 mi North 3.5 mph - N/A   Overcast
9:55 AM 19.4 °F 7.9 °F 19.4 °F 100% 29.82 in 5.0 mi NNW 10.4 mph - N/A   Overcast
10:15 AM 19.4 °F 10.4 °F 19.4 °F 100% 29.83 in 6.0 mi NNW 6.9 mph - N/A   Overcast
10:35 AM 19.4 °F 9.5 °F 19.4 °F 100% 29.83 in 9.0 mi NNW 8.1 mph - N/A   Overcast
10:55 AM 19.4 °F 9.5 °F 19.4 °F 100% 29.83 in 10.0 mi NNW 8.1 mph - N/A   Overcast
11:15 AM 19.4 °F 9.5 °F 19.4 °F 100% 29.82 in 10.0 mi North 8.1 mph - N/A   Unknown
11:35 AM 19.4 °F 9.5 °F 19.4 °F 100% 29.82 in 10.0 mi NNE 8.1 mph - N/A   Unknown
11:55 AM 19.4 °F 10.4 °F 19.4 °F 100% 29.81 in 10.0 mi NNW 6.9 mph - N/A   Unknown
12:15 PM 19.4 °F 12.8 °F 19.4 °F 100% 29.81 in 9.0 mi NNE 4.6 mph - N/A Snow Light Snow
12:35 PM 19.4 °F 12.8 °F 19.4 °F 100% 29.80 in 10.0 mi NNE 4.6 mph - N/A   Unknown
12:55 PM 19.4 °F 14.3 °F 19.4 °F 100% 29.80 in 10.0 mi West 3.5 mph - N/A   Unknown
1:15 PM 19.4 °F 11.5 °F 19.4 °F 100% 29.80 in 10.0 mi NNW 5.8 mph - N/A   Unknown
1:35 PM 19.4 °F 11.5 °F 19.4 °F 100% 29.79 in 10.0 mi NNW 5.8 mph - N/A   Unknown
1:55 PM 19.4 °F 9.5 °F 19.4 °F 100% 29.78 in 10.0 mi North 8.1 mph - N/A   Unknown
2:15 PM 19.4 °F 10.4 °F 19.4 °F 100% 29.78 in 10.0 mi North 6.9 mph - N/A   Overcast
2:35 PM 19.4 °F 8.6 °F 19.4 °F 100% 29.77 in 10.0 mi North 9.2 mph - N/A   Overcast
2:55 PM 19.4 °F 9.5 °F 19.4 °F 100% 29.77 in 10.0 mi NE 8.1 mph - N/A   Overcast
3:15 PM 19.4 °F 10.4 °F 19.4 °F 100% 29.78 in 10.0 mi NNE 6.9 mph - N/A   Overcast
3:35 PM 19.4 °F 12.8 °F 19.4 °F 100% 29.78 in 10.0 mi North 4.6 mph - N/A   Overcast
4:15 PM 19.4 °F 14.3 °F 19.4 °F 100% 29.79 in 10.0 mi North 3.5 mph - N/A   Overcast
4:35 PM 19.4 °F 11.5 °F 19.4 °F 100% 29.80 in 10.0 mi North 5.8 mph - N/A   Overcast
4:55 PM 19.4 °F 11.5 °F 19.4 °F 100% 29.80 in 10.0 mi NNE 5.8 mph - N/A   Unknown
5:15 PM 19.4 °F 12.8 °F 19.4 °F 100% 29.81 in 10.0 mi NE 4.6 mph - N/A   Unknown
5:35 PM 19.4 °F 14.3 °F 19.4 °F 100% 29.81 in 10.0 mi NNE 3.5 mph - N/A   Unknown
5:55 PM 19.4 °F 12.8 °F 19.4 °F 100% 29.81 in 10.0 mi NNE 4.6 mph - N/A   Unknown
6:15 PM 19.4 °F 12.8 °F 19.4 °F 100% 29.81 in 10.0 mi NE 4.6 mph - N/A   Unknown
6:35 PM 19.4 °F 12.8 °F 19.4 °F 100% 29.81 in 10.0 mi NE 4.6 mph - N/A   Unknown
6:55 PM 19.4 °F 12.8 °F 19.4 °F 100% 29.81 in 10.0 mi NNE 4.6 mph - N/A   Unknown
7:15 PM 19.4 °F 8.6 °F 19.4 °F 100% 29.81 in 10.0 mi NE 9.2 mph - N/A   Unknown
7:35 PM 19.4 °F 9.5 °F 19.4 °F 100% 29.81 in 10.0 mi NE 8.1 mph - N/A   Unknown
7:55 PM 19.4 °F 10.4 °F 19.4 °F 100% 29.81 in 10.0 mi ENE 6.9 mph - N/A   Unknown
8:15 PM 19.4 °F 9.5 °F 19.4 °F 100% 29.81 in 10.0 mi NNE 8.1 mph - N/A   Overcast
8:35 PM 19.4 °F 9.5 °F 19.4 °F 100% 29.81 in 10.0 mi NE 8.1 mph - N/A   Overcast
8:55 PM 19.4 °F 11.5 °F 19.4 °F 100% 29.82 in 10.0 mi NNE 5.8 mph - N/A   Overcast
9:15 PM 19.4 °F 12.8 °F 19.4 °F 100% 29.82 in 10.0 mi North 4.6 mph - N/A   Overcast
9:35 PM 19.4 °F 11.5 °F 19.4 °F 100% 29.81 in 10.0 mi NNE 5.8 mph - N/A   Overcast
9:55 PM 19.4 °F 8.6 °F 19.4 °F 100% 29.81 in 10.0 mi NE 9.2 mph - N/A   Overcast
10:15 PM 19.4 °F 14.3 °F 19.4 °F 100% 29.82 in 10.0 mi NNE 3.5 mph - N/A   Unknown
10:35 PM 17.6 °F 12.3 °F 17.6 °F 100% 29.81 in 10.0 mi NNE 3.5 mph - N/A   Unknown
10:55 PM 19.4 °F - 19.4 °F 100% 29.81 in 10.0 mi Calm Calm - N/A   Unknown
11:15 PM 19.4 °F 12.8 °F 19.4 °F 100% 29.80 in 10.0 mi North 4.6 mph - N/A   Unknown
11:35 PM 17.6 °F 12.3 °F 17.6 °F 100% 29.80 in 10.0 mi NNE 3.5 mph - N/A   Unknown
11:55 PM 17.6 °F 12.3 °F 17.6 °F 100% 29.80 in 7.0 mi East 3.5 mph - N/A   Unknown